Vertical_Velocity
1 1 3 4 3 0 0 0 0 0 -1 -1 1 1 0 -1 -1 -1 -1 1 1 0 -2 -1 0 -1 -2 -1 -1 -2 -4 -3 -5 -3 2 -0 -0 2 0 0 1 3 4
1 1 -0 2 1 2 1 -0 -1 -0 1 1 0 -1 0 -1 -2 1 1 -1 -1 -0 0 -0 -1 -1 -2 -3 -2 -2 -0 -2 -3 -4 -5 -5 1 -2 -2 -1 0 -1 1
-0 -3 -1 0 2 -2 -2 -1 2 3 2 0 -1 -1 -1 0 2 -1 -1 2 3 1 0 -1 -0 -1 0 1 0 -0 -1 -1 -2 -4 -2 -0 -2 -7 -1 -2 -5 -4 -4
2 3 0 -3 -2 -0 -0 2 3 2 3 -0 -2 -0 2 -1 -1 3 3 1 0 1 -1 0 1 -1 -2 -2 -2 -2 -2 -0 1 2 1 -1 -3 -3 -6 2 3 0 1
0 -0 -2 1 3 1 1 1 1 1 1 0 2 -0 -2 3 1 1 2 1 1 1 1 -2 -3 -1 1 0 -0 -1 -0 -0 -1 -2 -2 -1 1 3 2 -7 -7 -1 0
-1 1 1 2 -0 -0 1 1 1 2 2 0 -0 2 1 0 2 1 -0 1 -0 -1 1 1 1 0 -1 -1 -1 0 1 2 1 1 -0 1 1 0 -1 -5 -4 -4 0
-1 -1 0 -0 0 2 2 2 2 2 1 1 1 -1 0 -0 -0 1 1 1 0 -0 -1 -2 -2 -1 1 1 2 1 1 0 -0 0 1 0 -1 -0 1 1 -1 -5 -11
2 1 3 3 3 2 1 1 1 1 1 -0 -1 -1 0 1 0 -1 -1 -1 -1 -2 -3 0 1 1 0 -0 -1 0 1 0 -0 -1 1 2 3 1 1 -1 0 -9 -2
3 1 1 1 1 0 -0 0 -0 0 1 -0 -1 -1 -2 -2 -1 -2 -3 -3 -0 0 -0 -1 -2 -1 -0 -0 -1 -2 -1 -2 -1 -2 -3 -1 -1 0 1 3 5 3 -2
3 2 1 0 -0 -0 -0 1 -1 -1 -2 -1 -0 -0 -1 -1 -1 -1 -0 -1 -2 0 2 2 1 -1 -2 -1 -2 -1 -1 0 1 -0 -1 1 0 3 3 2 2 2 4
2 1 -0 -1 -2 -1 0 0 -0 -0 0 -0 -1 -0 0 -0 -0 -1 0 1 1 2 -0 -1 -0 -0 1 0 1 -1 -1 -2 -1 -1 -2 1 1 4 1 -1 1 3 2
0 -1 -1 -0 -0 0 0 -0 -1 -1 -2 -1 1 2 0 0 1 1 2 2 0 -1 -0 1 1 2 1 -1 -1 -3 1 -3 -1 -1 -1 2 2 4 -0 3 0 1 7
1 1 1 0 -0 -1 -1 -1 -0 0 -1 -1 -1 -0 1 2 1 0 0 0 -0 0 1 1 1 1 -1 -0 1 -1 -0 3 1 2 0 3 0 -0 1 0 0 1 1
1 1 0 0 1 1 2 1 1 1 1 -0 0 1 -0 0 1 -0 -1 -1 1 1 2 -1 2 1 1 2 1 1 0 1 1 -0 1 -1 -1 -1 2 1 2 1 -0
0 -0 -1 -1 -1 -1 -0 1 0 -0 1 0 -1 1 -0 -1 -0 2 1 2 2 1 2 4 4 2 2 -0 -2 1 1 0 -1 2 -1 0 2 -1 0 -2 -2 1 0
-0 -0 -0 1 2 0 -1 -2 -1 -1 -1 1 2 -0 -0 0 1 1 1 2 1 3 2 2 1 -1 -2 -3 -3 1 -0 -0 1 -2 -1 -0 1 1 1 2 3 3 -2
1 0 -1 -2 -1 -1 -0 0 1 1 1 2 3 2 0 -1 -0 1 0 3 4 1 3 1 3 2 2 2 1 -1 -1 1 -0 -1 -1 0 -0 2 0 3 1 -1 3
-0 -1 -2 -2 1 0 -0 -1 -2 -1 1 3 3 0 -0 0 -0 1 2 3 3 2 0 -1 -1 -1 -0 -2 -1 -1 -1 0 2 1 2 1 -2 2 3 1 -1 2 0
-3 -3 -1 0 -2 -2 -2 -1 2 1 -3 -2 1 1 -1 2 2 2 0 2 -2 0 1 1 -1 -3 -4 -1 -1 -1 -3 -2 -1 2 3 1 0 4 4 -0 -1 -1 -6
-0 1 1 1 -1 -0 0 -3 -4 -2 -1 -2 0 3 3 0 0 -0 1 -2 -3 -3 -2 -2 -0 2 -6 3 -0 3 1 -2 3 3 -2 4 5 2 2 1 1 -3 -4
2 0 -3 -1 -1 -3 -2 -1 -3 -2 1 3 1 -1 -2 -0 -1 -2 -3 -4 -3 -1 -1 -3 -1 -3 1 -2 -0 3 -1 1 -4 -1 -5 1 6 4 2 4 0 -3 -0
1 0 -1 -1 -1 -2 -2 -1 1 0 1 2 -0 0 -0 -1 -2 -2 0 2 -2 -3 -3 -4 -4 -1 -0 4 -3 5 5 4 1 -2 -1 -2 2 0 -0 -0 -1 6 6
-1 -1 -3 -2 -1 1 2 1 -1 -0 -0 -1 -1 -2 -0 -1 -1 -0 -1 -2 -1 -2 -3 -5 -6 -7 -2 -6 2 -1 3 2 -1 -1 -2 -1 2 3 5 1 -5 2 6
-2 -2 -0 2 1 -0 -2 -3 -1 0 -0 -1 -2 -3 -1 -1 -1 -1 -1 -2 -2 -0 -2 -5 -5 -6 -7 -5 -3 -7 -7 -1 -2 1 1 2 4 5 6 4 1 2 2
-0 0 1 0 -1 -2 0 1 -1 -2 -2 -2 -1 -1 -3 -3 -2 -1 -2 -2 2 -1 -4 -4 2 -5 -5 -3 3 5 1 5 10 15 3 -4 -1 -2 9 2 -1 1 2
-1 -1 0 1 0 1 -1 -3 -2 -1 -2 -2 -2 -1 -1 -1 -0 -2 -2 4 1 2 0 0 1 2 -0 -0 -1 -0 1 -1 6 6 13 -0 10 1 -2 -3 -2 0 1
Height
1498 1503 1507 1511 1515 1519 1523 1526 1528 1529 1531 1533 1534 1535 1536 1537 1538 1537 1537 1537 1536 1535 1534 1533 1532 1531 1529 1527 1526 1524 1522 1521 1519 1517 1517 1516 1515 1514 1513 1513 1512 1511 1510
1495 1500 1504 1507 1512 1516 1521 1523 1526 1527 1529 1531 1532 1534 1534 1535 1535 1535 1535 1535 1534 1533 1532 1531 1530 1529 1527 1525 1523 1522 1520 1518 1516 1515 1513 1513 1514 1513 1512 1511 1510 1509 1509
1493 1497 1502 1505 1510 1513 1518 1521 1524 1525 1527 1528 1530 1531 1532 1532 1532 1532 1532 1531 1531 1530 1530 1529 1528 1526 1525 1524 1523 1521 1520 1518 1516 1515 1515 1513 1511 1510 1508 1508 1507 1507 1507
1491 1495 1499 1504 1507 1512 1516 1519 1521 1523 1524 1526 1528 1529 1529 1530 1530 1529 1529 1529 1528 1528 1527 1527 1526 1525 1524 1522 1521 1520 1519 1517 1515 1514 1512 1510 1510 1509 1505 1504 1504 1504 1503
1489 1493 1497 1502 1505 1510 1513 1515 1518 1520 1521 1523 1525 1526 1527 1527 1527 1527 1527 1526 1526 1525 1525 1524 1524 1523 1522 1520 1519 1518 1517 1515 1513 1512 1511 1510 1509 1507 1504 1496 1495 1496 1496
1486 1491 1495 1499 1502 1506 1509 1512 1514 1516 1518 1520 1522 1524 1524 1524 1524 1524 1524 1524 1523 1523 1523 1523 1522 1522 1521 1520 1519 1517 1515 1513 1512 1510 1508 1507 1505 1503 1503 1499 1493 1492 1487
1484 1488 1491 1495 1499 1503 1506 1509 1511 1513 1515 1517 1519 1521 1521 1521 1521 1521 1521 1521 1521 1520 1521 1521 1521 1520 1519 1518 1517 1515 1514 1512 1511 1510 1508 1506 1504 1502 1500 1497 1493 1488 1483
1481 1484 1488 1493 1497 1501 1505 1507 1509 1511 1512 1514 1516 1517 1518 1518 1519 1518 1518 1518 1518 1518 1518 1518 1518 1518 1517 1516 1515 1514 1512 1511 1509 1508 1506 1504 1501 1498 1496 1493 1491 1486 1481
1479 1483 1487 1492 1497 1500 1504 1506 1507 1509 1510 1511 1513 1514 1515 1515 1515 1515 1515 1515 1515 1515 1515 1515 1515 1515 1515 1515 1514 1513 1512 1509 1507 1505 1503 1501 1498 1495 1493 1490 1487 1483 1480
1481 1484 1489 1493 1497 1500 1502 1503 1505 1506 1507 1508 1510 1511 1512 1512 1512 1512 1512 1512 1512 1512 1512 1512 1512 1512 1513 1512 1511 1510 1509 1507 1504 1502 1499 1497 1495 1491 1488 1486 1483 1481 1478
1482 1486 1489 1493 1496 1499 1501 1502 1503 1504 1505 1506 1508 1509 1509 1509 1509 1509 1509 1509 1509 1510 1510 1510 1510 1510 1509 1508 1507 1506 1506 1503 1500 1497 1494 1492 1489 1486 1482 1480 1480 1476 1472
1484 1487 1490 1493 1496 1498 1499 1500 1501 1502 1502 1504 1505 1506 1506 1506 1506 1506 1506 1507 1507 1507 1508 1508 1508 1508 1506 1506 1504 1502 1501 1497 1494 1492 1490 1488 1484 1482 1479 1475 1474 1472 1469
1485 1488 1490 1493 1495 1496 1497 1498 1499 1499 1500 1501 1502 1502 1503 1503 1504 1504 1504 1504 1505 1506 1505 1505 1505 1504 1503 1502 1499 1497 1494 1491 1488 1486 1483 1480 1478 1476 1474 1472 1469 1466 1463
1486 1488 1490 1493 1494 1495 1495 1496 1496 1497 1497 1498 1498 1499 1500 1500 1501 1501 1501 1502 1502 1502 1502 1502 1502 1500 1499 1497 1495 1491 1487 1485 1481 1479 1476 1474 1471 1469 1467 1464 1463 1460 1456
1487 1489 1491 1492 1493 1493 1493 1492 1492 1493 1493 1495 1496 1496 1497 1497 1498 1498 1499 1499 1499 1500 1499 1499 1498 1497 1494 1492 1488 1484 1481 1478 1474 1472 1469 1468 1465 1462 1460 1457 1456 1453 1450
1489 1490 1491 1492 1491 1490 1489 1489 1489 1489 1489 1490 1493 1494 1495 1495 1496 1497 1497 1497 1497 1496 1496 1495 1494 1491 1488 1486 1482 1479 1474 1471 1467 1464 1461 1460 1457 1455 1453 1451 1449 1447 1443
1489 1489 1489 1489 1489 1487 1486 1486 1485 1485 1485 1487 1490 1492 1493 1494 1495 1495 1495 1495 1494 1493 1493 1491 1489 1485 1481 1478 1475 1472 1467 1463 1459 1455 1452 1449 1449 1447 1445 1443 1441 1440 1438
1488 1488 1488 1488 1487 1486 1485 1484 1484 1483 1484 1486 1489 1491 1492 1492 1492 1492 1492 1491 1490 1490 1488 1486 1483 1478 1474 1472 1468 1464 1459 1454 1450 1446 1443 1440 1439 1439 1436 1434 1432 1431 1430
1486 1486 1486 1486 1484 1484 1483 1483 1483 1484 1485 1487 1488 1489 1489 1489 1489 1490 1489 1489 1488 1485 1483 1480 1476 1472 1467 1465 1460 1455 1449 1444 1440 1437 1434 1432 1430 1429 1428 1425 1423 1421 1420
1484 1484 1484 1484 1484 1484 1484 1484 1484 1485 1486 1487 1487 1487 1488 1488 1488 1488 1487 1485 1483 1479 1476 1471 1469 1464 1458 1454 1450 1446 1440 1434 1431 1428 1425 1424 1422 1420 1419 1417 1415 1412 1411
1482 1483 1483 1483 1483 1483 1483 1484 1484 1485 1486 1486 1485 1485 1486 1486 1485 1484 1482 1480 1477 1472 1469 1464 1460 1456 1452 1446 1443 1439 1433 1428 1423 1419 1417 1415 1415 1413 1411 1410 1408 1406 1405
1480 1481 1481 1482 1483 1483 1483 1483 1484 1484 1484 1484 1484 1484 1484 1483 1482 1479 1477 1474 1470 1465 1461 1455 1449 1447 1443 1440 1436 1431 1427 1422 1418 1413 1409 1407 1406 1404 1403 1401 1400 1399 1397
1479 1480 1481 1482 1483 1483 1484 1484 1484 1484 1484 1484 1483 1482 1482 1480 1478 1475 1471 1467 1464 1459 1453 1448 1442 1437 1433 1429 1427 1424 1419 1415 1411 1407 1404 1401 1399 1397 1396 1395 1393 1392 1389
1478 1479 1480 1481 1482 1482 1482 1483 1483 1483 1483 1483 1482 1480 1478 1475 1473 1469 1466 1461 1457 1452 1447 1442 1437 1431 1426 1422 1418 1414 1411 1407 1403 1400 1396 1393 1391 1390 1388 1387 1385 1384 1381
1476 1477 1478 1479 1479 1480 1481 1481 1482 1482 1481 1479 1477 1475 1473 1469 1465 1463 1459 1455 1452 1448 1442 1438 1433 1428 1421 1418 1415 1412 1407 1403 1398 1393 1389 1386 1383 1381 1379 1378 1377 1375 1372
1474 1475 1476 1477 1478 1479 1479 1480 1479 1478 1476 1474 1472 1470 1467 1464 1460 1456 1452 1451 1447 1443 1439 1436 1430 1425 1421 1415 1410 1406 1401 1397 1392 1387 1383 1381 1378 1375 1373 1370 1367 1366 1364